Time,TemperatureF,DewpointF,PressureIn,WindDirection,WindDirectionDegrees,WindSpeedMPH,WindSpeedGustMPH,Humidity,HourlyPrecipIn,Conditions,Clouds,dailyrainin,SoftwareType,DateUTC
2013-01-13 00:01:00,20.7,9.7,30.23,North,352,12.0,20.0,62,0.00,,,0.00,Wunderground v.1.15,2013-01-13 06:01:00,
2013-01-13 00:11:00,20.2,9.6,30.22,NE,55,14.0,14.0,63,0.00,,,0.00,Wunderground v.1.15,2013-01-13 06:11:00,
2013-01-13 00:21:00,19.9,9.7,30.22,NNE,26,12.0,12.0,64,0.00,,,0.00,Wunderground v.1.15,2013-01-13 06:21:00,
2013-01-13 00:32:00,19.6,10.1,30.23,NNW,330,11.0,11.0,66,0.00,,,0.00,Wunderground v.1.15,2013-01-13 06:32:00,
2013-01-13 00:42:00,19.3,10.5,30.22,NE,39,8.0,12.0,68,0.00,,,0.00,Wunderground v.1.15,2013-01-13 06:42:00,
2013-01-13 00:52:00,19.0,10.5,30.21,NNE,17,11.0,11.0,69,0.00,,,0.00,Wunderground v.1.15,2013-01-13 06:52:00,
2013-01-13 01:02:00,19.0,10.5,30.22,NNE,13,12.0,12.0,69,0.00,,,0.00,Wunderground v.1.15,2013-01-13 07:02:00,
2013-01-13 01:12:00,18.8,10.3,30.21,NNW,345,13.0,21.0,69,0.00,,,0.00,Wunderground v.1.15,2013-01-13 07:12:00,
2013-01-13 01:22:00,18.6,10.1,30.23,NNW,342,13.0,13.0,69,0.00,,,0.00,Wunderground v.1.15,2013-01-13 07:22:00,
2013-01-13 01:32:00,18.5,10.3,30.24,NNW,344,11.0,15.0,70,0.00,,,0.00,Wunderground v.1.15,2013-01-13 07:32:00,
2013-01-13 01:42:00,18.3,10.1,30.24,NNW,327,12.0,12.0,70,0.00,,,0.00,Wunderground v.1.15,2013-01-13 07:42:00,
2013-01-13 01:52:00,18.2,10.1,30.25,North,356,12.0,17.0,70,0.00,,,0.00,Wunderground v.1.15,2013-01-13 07:52:00,
2013-01-13 02:02:00,18.1,9.6,30.26,North,6,11.0,13.0,69,0.00,,,0.00,Wunderground v.1.15,2013-01-13 08:02:00,
2013-01-13 02:12:00,18.0,9.2,30.27,NNE,18,10.0,11.0,68,0.00,,,0.00,Wunderground v.1.15,2013-01-13 08:12:00,
2013-01-13 02:22:00,17.8,9.3,30.28,NNE,15,11.0,11.0,69,0.00,,,0.00,Wunderground v.1.15,2013-01-13 08:22:00,
2013-01-13 02:32:00,17.6,9.2,30.28,North,360,11.0,12.0,69,0.00,,,0.00,Wunderground v.1.15,2013-01-13 08:32:00,
2013-01-13 02:42:00,17.3,8.9,30.29,North,354,12.0,12.0,69,0.00,,,0.00,Wunderground v.1.15,2013-01-13 08:42:00,
2013-01-13 02:52:00,17.1,8.3,30.29,NNE,32,11.0,12.0,68,0.00,,,0.00,Wunderground v.1.15,2013-01-13 08:52:00,
2013-01-13 03:12:00,16.6,7.9,30.29,North,3,12.0,12.0,68,0.00,,,0.00,Wunderground v.1.15,2013-01-13 09:12:00,
2013-01-13 03:22:00,16.3,7.3,30.30,NNE,23,14.0,14.0,67,0.00,,,0.00,Wunderground v.1.15,2013-01-13 09:22:00,
2013-01-13 03:32:00,16.1,7.1,30.30,NNW,339,13.0,15.0,67,0.00,,,0.00,Wunderground v.1.15,2013-01-13 09:32:00,
2013-01-13 03:42:00,16.0,7.0,30.30,ENE,64,13.0,15.0,67,0.00,,,0.00,Wunderground v.1.15,2013-01-13 09:42:00,
2013-01-13 03:52:00,16.0,7.3,30.30,North,356,15.0,16.0,68,0.00,,,0.00,Wunderground v.1.15,2013-01-13 09:52:00,
2013-01-13 04:02:00,15.9,7.2,30.30,NW,309,14.0,16.0,68,0.00,,,0.00,Wunderground v.1.15,2013-01-13 10:02:00,
2013-01-13 04:12:00,15.7,7.0,30.29,NNW,345,13.0,13.0,68,0.00,,,0.00,Wunderground v.1.15,2013-01-13 10:12:00,
2013-01-13 04:22:00,15.6,7.2,30.30,North,8,12.0,12.0,69,0.00,,,0.00,Wunderground v.1.15,2013-01-13 10:22:00,
2013-01-13 04:32:00,15.4,7.4,30.30,NE,36,13.0,13.0,70,0.00,,,0.00,Wunderground v.1.15,2013-01-13 10:32:00,
2013-01-13 04:42:00,15.1,7.7,30.30,NE,34,12.0,12.0,72,0.00,,,0.00,Wunderground v.1.15,2013-01-13 10:42:00,
2013-01-13 04:52:00,15.0,7.6,30.31,NNW,344,9.0,11.0,72,0.00,,,0.00,Wunderground v.1.15,2013-01-13 10:52:00,
2013-01-13 05:02:00,14.8,7.7,30.31,NNE,31,11.0,11.0,73,0.00,,,0.00,Wunderground v.1.15,2013-01-13 11:02:00,
2013-01-13 05:12:00,14.5,7.4,30.31,NNW,335,10.0,13.0,73,0.00,,,0.00,Wunderground v.1.15,2013-01-13 11:12:00,
2013-01-13 05:22:00,14.2,7.7,30.31,NNE,22,8.0,8.0,75,0.00,,,0.00,Wunderground v.1.15,2013-01-13 11:22:00,
2013-01-13 05:32:00,13.9,7.7,30.32,NNE,16,7.0,11.0,76,0.00,,,0.00,Wunderground v.1.15,2013-01-13 11:32:00,
2013-01-13 05:42:00,13.6,7.1,30.32,North,349,8.0,10.0,75,0.00,,,0.00,Wunderground v.1.15,2013-01-13 11:42:00,
2013-01-13 05:52:00,13.4,6.7,30.33,NNE,20,9.0,9.0,74,0.00,,,0.00,Wunderground v.1.15,2013-01-13 11:52:00,
2013-01-13 06:02:00,13.2,6.8,30.33,NW,316,9.0,9.0,75,0.00,,,0.00,Wunderground v.1.15,2013-01-13 12:02:00,
2013-01-13 06:12:00,13.0,6.9,30.34,WNW,289,6.0,6.0,76,0.00,,,0.00,Wunderground v.1.15,2013-01-13 12:12:00,
2013-01-13 06:22:00,12.9,7.0,30.34,NE,41,5.0,5.0,77,0.00,,,0.00,Wunderground v.1.15,2013-01-13 12:22:00,
2013-01-13 06:32:00,12.8,6.7,30.35,NNE,19,8.0,8.0,76,0.00,,,0.00,Wunderground v.1.15,2013-01-13 12:32:00,
2013-01-13 06:42:00,12.7,6.3,30.35,NNE,25,8.0,8.0,75,0.00,,,0.00,Wunderground v.1.15,2013-01-13 12:42:00,
2013-01-13 06:52:00,12.6,6.2,30.36,NNW,340,9.0,9.0,75,0.00,,,0.00,Wunderground v.1.15,2013-01-13 12:52:00,
2013-01-13 07:02:00,12.5,6.4,30.36,WNW,294,7.0,9.0,76,0.00,,,0.00,Wunderground v.1.15,2013-01-13 13:02:00,
2013-01-13 07:12:00,12.4,6.3,30.37,North,11,8.0,8.0,76,0.00,,,0.00,Wunderground v.1.15,2013-01-13 13:12:00,
2013-01-13 07:22:00,12.3,6.2,30.37,NNW,347,7.0,12.0,76,0.00,,,0.00,Wunderground v.1.15,2013-01-13 13:22:00,
2013-01-13 07:32:00,12.3,6.2,30.38,North,356,8.0,10.0,76,0.00,,,0.00,Wunderground v.1.15,2013-01-13 13:32:00,
2013-01-13 07:42:00,12.2,6.1,30.38,North,352,8.0,8.0,76,0.00,,,0.00,Wunderground v.1.15,2013-01-13 13:42:00,
2013-01-13 07:52:00,12.2,6.1,30.39,NNE,16,6.0,7.0,76,0.00,,,0.00,Wunderground v.1.15,2013-01-13 13:52:00,
2013-01-13 08:02:00,12.2,6.1,30.40,North,354,6.0,7.0,76,0.00,,,0.00,Wunderground v.1.15,2013-01-13 14:02:00,
2013-01-13 08:12:00,12.5,6.4,30.40,NW,311,7.0,9.0,76,0.00,,,0.00,Wunderground v.1.15,2013-01-13 14:12:00,
2013-01-13 08:22:00,12.8,6.7,30.40,NNW,339,7.0,7.0,76,0.00,,,0.00,Wunderground v.1.15,2013-01-13 14:22:00,
2013-01-13 08:32:00,13.1,6.7,30.41,NNW,337,7.0,11.0,75,0.00,,,0.00,Wunderground v.1.15,2013-01-13 14:32:00,
2013-01-13 08:42:00,13.5,6.5,30.41,NW,326,7.0,9.0,73,0.00,,,0.00,Wunderground v.1.15,2013-01-13 14:42:00,
2013-01-13 08:52:00,13.7,6.3,30.42,NNW,343,8.0,9.0,72,0.00,,,0.00,Wunderground v.1.15,2013-01-13 14:52:00,
2013-01-13 09:02:00,14.1,6.4,30.43,NW,304,8.0,9.0,71,0.00,,,0.00,Wunderground v.1.15,2013-01-13 15:02:00,
2013-01-13 09:12:00,14.4,6.4,30.43,NNW,327,8.0,8.0,70,0.00,,,0.00,Wunderground v.1.15,2013-01-13 15:12:00,
2013-01-13 09:22:00,14.7,6.4,30.44,NNW,338,8.0,10.0,69,0.00,,,0.00,Wunderground v.1.15,2013-01-13 15:22:00,
2013-01-13 09:32:00,15.2,6.8,30.44,NW,315,8.0,8.0,69,0.00,,,0.00,Wunderground v.1.15,2013-01-13 15:32:00,
2013-01-13 09:42:00,15.4,6.7,30.45,WNW,297,8.0,8.0,68,0.00,,,0.00,Wunderground v.1.15,2013-01-13 15:42:00,
2013-01-13 09:52:00,15.7,6.7,30.45,WNW,290,8.0,8.0,67,0.00,,,0.00,Wunderground v.1.15,2013-01-13 15:52:00,
2013-01-13 10:02:00,16.3,6.9,30.46,WNW,302,7.0,11.0,66,0.00,,,0.00,Wunderground v.1.15,2013-01-13 16:02:00,
2013-01-13 10:12:00,16.7,7.3,30.46,NW,305,8.0,8.0,66,0.00,,,0.00,Wunderground v.1.15,2013-01-13 16:12:00,
2013-01-13 10:22:00,17.1,7.0,30.46,NW,316,7.0,7.0,64,0.00,,,0.00,Wunderground v.1.15,2013-01-13 16:22:00,
2013-01-13 10:32:00,17.5,7.0,30.46,WNW,298,8.0,11.0,63,0.00,,,0.00,Wunderground v.1.15,2013-01-13 16:32:00,
2013-01-13 10:42:00,17.7,6.5,30.47,West,276,9.0,10.0,61,0.00,,,0.00,Wunderground v.1.15,2013-01-13 16:42:00,
2013-01-13 10:52:00,18.2,6.6,30.46,NW,306,9.0,9.0,60,0.00,,,0.00,Wunderground v.1.15,2013-01-13 16:52:00,
2013-01-13 11:02:00,18.9,6.5,30.46,NE,45,8.0,8.0,58,0.00,,,0.00,Wunderground v.1.15,2013-01-13 17:02:00,
2013-01-13 11:12:00,19.6,6.4,30.46,NW,321,7.0,7.0,56,0.00,,,0.00,Wunderground v.1.15,2013-01-13 17:12:00,
2013-01-13 11:22:00,19.8,6.6,30.44,NNE,18,8.0,13.0,56,0.00,,,0.00,Wunderground v.1.15,2013-01-13 17:22:00,
2013-01-13 11:32:00,20.0,6.4,30.44,NNW,342,8.0,8.0,55,0.00,,,0.00,Wunderground v.1.15,2013-01-13 17:32:00,
2013-01-13 11:42:00,20.6,7.4,30.44,WNW,294,6.0,7.0,56,0.00,,,0.00,Wunderground v.1.15,2013-01-13 17:42:00,
2013-01-13 11:52:00,21.1,6.2,30.43,NNE,13,6.0,8.0,52,0.00,,,0.00,Wunderground v.1.15,2013-01-13 17:52:00,
2013-01-13 12:02:00,21.6,6.2,30.43,SSW,211,7.0,7.0,51,0.00,,,0.00,Wunderground v.1.15,2013-01-13 18:02:00,
2013-01-13 12:12:00,21.7,6.3,30.43,WNW,296,8.0,8.0,51,0.00,,,0.00,Wunderground v.1.15,2013-01-13 18:12:00,
2013-01-13 12:22:00,22.2,6.8,30.42,NW,308,7.0,7.0,51,0.00,,,0.00,Wunderground v.1.15,2013-01-13 18:22:00,
2013-01-13 12:32:00,22.3,6.4,30.41,NW,304,8.0,8.0,50,0.00,,,0.00,Wunderground v.1.15,2013-01-13 18:32:00,
2013-01-13 12:42:00,22.3,6.0,30.41,NW,305,9.0,13.0,49,0.00,,,0.00,Wunderground v.1.15,2013-01-13 18:42:00,
2013-01-13 12:52:00,23.1,6.3,30.40,NW,312,8.0,8.0,48,0.00,,,0.00,Wunderground v.1.15,2013-01-13 18:52:00,
2013-01-13 13:02:00,23.7,6.4,30.40,NW,311,7.0,10.0,47,0.00,,,0.00,Wunderground v.1.15,2013-01-13 19:02:00,
2013-01-13 13:12:00,24.4,6.6,30.39,NW,316,7.0,8.0,46,0.00,,,0.00,Wunderground v.1.15,2013-01-13 19:12:00,
2013-01-13 13:22:00,24.4,6.1,30.39,NW,326,7.0,7.0,45,0.00,,,0.00,Wunderground v.1.15,2013-01-13 19:22:00,
2013-01-13 13:32:00,24.6,5.3,30.38,WNW,284,7.0,8.0,43,0.00,,,0.00,Wunderground v.1.15,2013-01-13 19:32:00,
2013-01-13 13:42:00,24.8,5.4,30.38,WNW,301,7.0,7.0,43,0.00,,,0.00,Wunderground v.1.15,2013-01-13 19:42:00,
2013-01-13 13:52:00,25.5,5.6,30.38,NW,320,8.0,8.0,42,0.00,,,0.00,Wunderground v.1.15,2013-01-13 19:52:00,
2013-01-13 14:02:00,26.0,5.5,30.38,WNW,287,7.0,7.0,41,0.00,,,0.00,Wunderground v.1.15,2013-01-13 20:02:00,
2013-01-13 14:12:00,25.8,5.3,30.39,NNE,26,7.0,7.0,41,0.00,,,0.00,Wunderground v.1.15,2013-01-13 20:12:00,
2013-01-13 14:22:00,26.3,5.8,30.39,NNW,330,5.0,5.0,41,0.00,,,0.00,Wunderground v.1.15,2013-01-13 20:22:00,
2013-01-13 14:32:00,27.0,6.4,30.39,NNW,330,5.0,5.0,41,0.00,,,0.00,Wunderground v.1.15,2013-01-13 20:32:00,
2013-01-13 14:42:00,26.6,5.5,30.40,NW,309,8.0,13.0,40,0.00,,,0.00,Wunderground v.1.15,2013-01-13 20:42:00,
2013-01-13 14:52:00,26.7,6.1,30.40,NW,308,7.0,7.0,41,0.00,,,0.00,Wunderground v.1.15,2013-01-13 20:52:00,
2013-01-13 15:02:00,27.1,5.9,30.41,West,281,6.0,6.0,40,0.00,,,0.00,Wunderground v.1.15,2013-01-13 21:02:00,
2013-01-13 15:22:00,27.4,5.7,30.40,NNE,22,8.0,8.0,39,0.00,,,0.00,Wunderground v.1.15,2013-01-13 21:22:00,
2013-01-13 15:32:00,27.4,5.7,30.39,North,358,6.0,9.0,39,0.00,,,0.00,Wunderground v.1.15,2013-01-13 21:32:00,
2013-01-13 15:42:00,27.9,6.1,30.39,NW,311,8.0,8.0,39,0.00,,,0.00,Wunderground v.1.15,2013-01-13 21:42:00,
2013-01-13 15:52:00,28.0,6.2,30.39,NNE,27,7.0,9.0,39,0.00,,,0.00,Wunderground v.1.15,2013-01-13 21:52:00,
2013-01-13 16:02:00,27.9,6.1,30.40,NNE,13,8.0,8.0,39,0.00,,,0.00,Wunderground v.1.15,2013-01-13 22:02:00,
2013-01-13 16:12:00,27.9,6.7,30.40,NNW,328,8.0,8.0,40,0.00,,,0.00,Wunderground v.1.15,2013-01-13 22:12:00,
2013-01-13 16:22:00,28.2,6.9,30.41,WNW,300,6.0,6.0,40,0.00,,,0.00,Wunderground v.1.15,2013-01-13 22:22:00,
2013-01-13 16:32:00,28.3,7.0,30.41,NW,308,5.0,5.0,40,0.00,,,0.00,Wunderground v.1.15,2013-01-13 22:32:00,
2013-01-13 16:42:00,28.1,7.4,30.42,NW,304,5.0,7.0,41,0.00,,,0.00,Wunderground v.1.15,2013-01-13 22:42:00,
2013-01-13 16:52:00,28.3,8.1,30.42,NNE,16,4.0,7.0,42,0.00,,,0.00,Wunderground v.1.15,2013-01-13 22:52:00,
2013-01-13 17:02:00,27.6,7.5,30.41,NNE,15,7.0,7.0,42,0.00,,,0.00,Wunderground v.1.15,2013-01-13 23:02:00,
2013-01-13 17:12:00,27.2,8.1,30.40,NNE,15,6.0,6.0,44,0.00,,,0.00,Wunderground v.1.15,2013-01-13 23:12:00,
2013-01-13 17:22:00,26.7,8.7,30.41,North,4,6.0,8.0,46,0.00,,,0.00,Wunderground v.1.15,2013-01-13 23:22:00,
2013-01-13 17:32:00,26.1,9.1,30.41,North,359,6.0,6.0,48,0.00,,,0.00,Wunderground v.1.15,2013-01-13 23:32:00,
2013-01-13 17:42:00,25.3,9.2,30.42,North,352,5.0,5.0,50,0.00,,,0.00,Wunderground v.1.15,2013-01-13 23:42:00,
2013-01-13 17:52:00,24.7,9.5,30.43,North,354,2.0,3.0,52,0.00,,,0.00,Wunderground v.1.15,2013-01-13 23:52:00,
2013-01-13 18:02:00,24.2,9.5,30.43,NNE,16,3.0,3.0,53,0.00,,,0.00,Wunderground v.1.15,2013-01-14 00:02:00,
2013-01-13 18:12:00,24.0,9.3,30.43,North,5,3.0,4.0,53,0.00,,,0.00,Wunderground v.1.15,2013-01-14 00:12:00,
2013-01-13 18:22:00,23.3,9.9,30.43,North,8,3.0,3.0,56,0.00,,,0.00,Wunderground v.1.15,2013-01-14 00:22:00,
2013-01-13 18:32:00,22.9,9.9,30.43,NNE,20,3.0,3.0,57,0.00,,,0.00,Wunderground v.1.15,2013-01-14 00:32:00,
2013-01-13 18:42:00,22.6,9.6,30.43,NNE,16,3.0,3.0,57,0.00,,,0.00,Wunderground v.1.15,2013-01-14 00:42:00,
2013-01-13 18:52:00,22.4,10.2,30.43,NNE,15,3.0,3.0,59,0.00,,,0.00,Wunderground v.1.15,2013-01-14 00:52:00,
2013-01-13 19:02:00,21.9,10.1,30.43,North,7,3.0,3.0,60,0.00,,,0.00,Wunderground v.1.15,2013-01-14 01:02:00,
2013-01-13 19:12:00,21.8,10.4,30.43,NNE,20,3.0,3.0,61,0.00,,,0.00,Wunderground v.1.15,2013-01-14 01:12:00,
2013-01-13 19:22:00,21.8,10.4,30.43,North,352,3.0,3.0,61,0.00,,,0.00,Wunderground v.1.15,2013-01-14 01:22:00,
2013-01-13 19:32:00,21.4,10.4,30.44,NNW,342,2.0,2.0,62,0.00,,,0.00,Wunderground v.1.15,2013-01-14 01:32:00,
2013-01-13 19:42:00,21.1,10.5,30.45,NNW,344,2.0,2.0,63,0.00,,,0.00,Wunderground v.1.15,2013-01-14 01:42:00,
2013-01-13 19:52:00,20.8,10.2,30.45,NNW,334,1.0,2.0,63,0.00,,,0.00,Wunderground v.1.15,2013-01-14 01:52:00,
2013-01-13 20:02:00,20.6,10.3,30.46,NW,323,1.0,1.0,64,0.00,,,0.00,Wunderground v.1.15,2013-01-14 02:02:00,
2013-01-13 20:12:00,20.8,10.2,30.46,NW,325,1.0,1.0,63,0.00,,,0.00,Wunderground v.1.15,2013-01-14 02:12:00,
2013-01-13 20:22:00,20.6,10.0,30.46,NNW,340,1.0,1.0,63,0.00,,,0.00,Wunderground v.1.15,2013-01-14 02:22:00,
2013-01-13 20:32:00,20.2,10.3,30.46,North,6,2.0,2.0,65,0.00,,,0.00,Wunderground v.1.15,2013-01-14 02:32:00,
2013-01-13 20:42:00,20.1,10.2,30.46,North,356,2.0,2.0,65,0.00,,,0.00,Wunderground v.1.15,2013-01-14 02:42:00,
2013-01-13 20:52:00,20.6,10.0,30.46,North,360,1.0,2.0,63,0.00,,,0.00,Wunderground v.1.15,2013-01-14 02:52:00,
2013-01-13 21:02:00,20.3,9.7,30.46,North,6,1.0,2.0,63,0.00,,,0.00,Wunderground v.1.15,2013-01-14 03:02:00,
2013-01-13 21:12:00,20.4,9.8,30.45,North,8,3.0,4.0,63,0.00,,,0.00,Wunderground v.1.15,2013-01-14 03:12:00,
2013-01-13 21:22:00,20.3,9.7,30.46,North,10,4.0,4.0,63,0.00,,,0.00,Wunderground v.1.15,2013-01-14 03:22:00,
2013-01-13 21:32:00,20.0,9.8,30.45,NNW,346,4.0,4.0,64,0.00,,,0.00,Wunderground v.1.15,2013-01-14 03:32:00,
2013-01-13 21:42:00,19.6,9.7,30.46,NNE,23,4.0,4.0,65,0.00,,,0.00,Wunderground v.1.15,2013-01-14 03:42:00,
2013-01-13 21:52:00,19.2,9.7,30.46,NNW,329,4.0,4.0,66,0.00,,,0.00,Wunderground v.1.15,2013-01-14 03:52:00,
2013-01-13 22:02:00,18.7,9.2,30.46,North,349,3.0,3.0,66,0.00,,,0.00,Wunderground v.1.15,2013-01-14 04:02:00,
2013-01-13 22:12:00,18.4,9.6,30.47,North,3,3.0,3.0,68,0.00,,,0.00,Wunderground v.1.15,2013-01-14 04:12:00,
2013-01-13 22:22:00,17.8,9.7,30.47,NNE,13,3.0,3.0,70,0.00,,,0.00,Wunderground v.1.15,2013-01-14 04:22:00,
2013-01-13 22:32:00,17.7,9.6,30.47,NNE,18,3.0,4.0,70,0.00,,,0.00,Wunderground v.1.15,2013-01-14 04:32:00,
2013-01-13 22:42:00,17.5,9.7,30.47,NNW,347,3.0,3.0,71,0.00,,,0.00,Wunderground v.1.15,2013-01-14 04:42:00,
2013-01-13 22:52:00,17.3,9.5,30.47,NNE,12,3.0,3.0,71,0.00,,,0.00,Wunderground v.1.15,2013-01-14 04:52:00,
2013-01-13 23:02:00,17.0,9.5,30.47,North,350,4.0,4.0,72,0.00,,,0.00,Wunderground v.1.15,2013-01-14 05:02:00,
2013-01-13 23:12:00,16.9,9.4,30.48,NNE,12,4.0,4.0,72,0.00,,,0.00,Wunderground v.1.15,2013-01-14 05:12:00,
2013-01-13 23:22:00,17.1,9.9,30.49,North,1,4.0,4.0,73,0.00,,,0.00,Wunderground v.1.15,2013-01-14 05:22:00,
2013-01-13 23:32:00,17.3,9.8,30.49,North,6,4.0,4.0,72,0.00,,,0.00,Wunderground v.1.15,2013-01-14 05:32:00,
2013-01-13 23:42:00,17.3,9.8,30.49,North,354,5.0,6.0,72,0.00,,,0.00,Wunderground v.1.15,2013-01-14 05:42:00,
2013-01-13 23:52:00,17.5,10.0,30.49,NNE,22,5.0,5.0,72,0.00,,,0.00,Wunderground v.1.15,2013-01-14 05:52:00,